Regional Weather Roundup
Issued by NWS Huntsville, AL

Home | Current Version | Previous Version | Text Only | Print | Product List | Glossary On
Versions: 1 2 3 4 5 6 7 8 9 10 11 12 13 14 15 16 17 18 19 20 21 22 23 24 25 26 27 28 29 30 31 32 33 34 35 36 37 38 39 40 41 42 43 44 45 46 47 48 49 50
000
ASUS44 KHUN 261310
RWRHUN

WEATHER ROUNDUP FOR THE TENNESSEE VALLEY
NATIONAL WEATHER SERVICE HUNTSVILLE AL
800 AM CDT SUN APR 26 2015

ALZ001>004-261400-
NORTHWEST ALABAMA

CITY           SKY/WX    TMP DP  RH WIND       PRES   REMARKS
COURTLAND HCN    N/A     64 N/A N/A CALM        N/A
BANKHEAD NF      N/A     67  65  91 NW2         N/A
RUSSELLVILLE     N/A     66 N/A N/A MISG        N/A
SHOALS AIRPORT PTSUNNY   67  59  75 VRB6      29.74R
SHOALS TVA RES   N/A     64 N/A N/A MISG        N/A
$$

ALZ005>007-016-261400-
NORTH CENTRAL ALABAMA

CITY           SKY/WX    TMP DP  RH WIND       PRES   REMARKS
CULLMAN AG STN   N/A     64 N/A N/A SW5         N/A
DECATUR AP     SUNNY     67  62  84 N7        29.71R
HUNTSVILLE AP  MOSUNNY   69  62  78 NW5       29.71R
HUN NWS/UAH      N/A     68  56  67 N7          N/A
MERIDIANVILLE  SUNNY     63  55  77 N8        29.71R
REDSTONE ARSN  SUNNY     67  62  81 N3        29.70R
VINEMONT AP    PTSUNNY   64  64  97 CALM      29.74R FOG
$$

ALZ008>010-261400-
NORTHEAST ALABAMA

CITY           SKY/WX    TMP DP  RH WIND       PRES   REMARKS
ALBERTVILLE    CLOUDY    64  64 100 W7        29.71R
FORT PAYNE     CLOUDY    64  61  88 SW7       29.70R
SCOTTSBORO HCN   N/A     63 N/A N/A MISG        N/A
VALLEY HEAD      N/A     64 N/A N/A MISG        N/A
$$

TNZ076-096-097-261400-
SOUTHEASTERN MIDDLE TENNESSEE

CITY           SKY/WX    TMP DP  RH WIND       PRES   REMARKS
TULLAHOMA      CLOUDY    57  57 100 NW5       29.73R
WINCHESTER     SUNNY     63  59  88 NW6       29.72R
$$

...SURROUNDING SITES...

CITY           SKY/WX    TMP DP  RH WIND       PRES   REMARKS
ATLANTA        PTSUNNY   66  63  88 W8        29.70R
ANNISTON       CLOUDY    66  63  90 W6        29.73R
BIRMINGHAM     CLOUDY    66  64  93 W8        29.75R
CHATTANOOGA    MOSUNNY   66  62  87 CALM      29.69R
CORINTH        FAIR      64  59  82 N6        29.74R
DALTON         PTSUNNY   63  63 100 CALM      29.69R
GADSDEN        CLOUDY   N/A N/A N/A SW6       29.70R
GOLDEN TRNGL   PTSUNNY   66  63  88 W9        29.73R
HALEYVILLE       N/A     65  65 100 CALM      29.76R
JACKSON TN     CLOUDY    60  55  83 N12       29.77R
MEMPHIS        PTSUNNY   64  58  80 N9        29.77R
NASHVILLE      CLOUDY    54  51  90 N10       29.75R
OXFORD MS      FAIR      63  59  88 NE6       29.77R
ROME           CLOUDY    67  65  93 SW5       29.68R
SAVANNAH       SUNNY     63  32  31 N8        29.75R
TUPELO         SUNNY     67  59  75 N6        29.73R
TUSCALOOSA     CLOUDY    65  63  93 CALM      29.73R
$$

...GULF COAST WEATHER...

CITY           SKY/WX    TMP DP  RH WIND       PRES   REMARKS
GULFPORT       FOG       69  68  96 SW5       29.77S VSB 1/2
PASCAGOULA     MOSUNNY   69  68  96 CALM      29.78R
MOBILE         PTSUNNY   69  67  93 W5        29.78R
GULF SHORES    PTSUNNY   70  68  93 W3        29.78R
PENSACOLA      PTSUNNY   72  68  87 CALM      29.77S
DESTIN         PTSUNNY   73  66  78 CALM      29.77R
PANAMA CITY    MOSUNNY   76  71  87 NW5       29.77R
APPALACHICOLA  MOSUNNY   79  72  79 N5        29.77S
$$



USA.gov is the U.S. government's official web portal to all federal, state and local government web resources and services.